Voltar ao catálogo

STARLINK-5675

AtivoComunicaçõesVLEO
NORAD 55340·PAYLOAD·🇺🇸 United States

Lançado Jan 26, 2023 de Cape Canaveral Space Force Station

Loading…

Próximas Passagens (próximas 24 horas)

TLE

AtualizadoSource: CelesTrak SupGP

Época: Sep 14, 2026, 21:19 UTC

1 55340C 23013K   26257.88868056 -.00036555  00000+0 -13238-2 0  2578
2 55340  43.0020 314.6802 0001870 270.4287  19.7577 15.27600535    19

Acompanhe STARLINK-5675 em tempo real com AllMySat

Download on the App Store